Location: Ferchesar
(52.6477°N, 12.4298°E)
Time: 04:18:14
(UTC+02:00)

Vanguard 3 - Pass Details

Date: 03 March 2021
Orbit: 508 x 3262 km, 33.3° (Epoch: 15 April)

Event Time Altitude Azimuth Distance (km) Brightness Sun altitude
Rises 15:56:52 0° 232° (SW) 7,216 13.9 15.4°
Reaches altitude 10° 16:02:41 10° 224° (SW) 6,088 13.6 14.7°
Maximum altitude 16:17:29 32° 171° (S) 3,824 11.0 12.8°
Drops below altitude 10° 16:28:07 10° 116° (ESE) 4,364 10.6 11.3°
Sets 16:31:27 0° 106° (ESE) 4,994 10.7 10.9°
